Haines, AK

6:14 PM AKDT on August 29, 2016 (GMT -0800)
Haines

Weather History for PAHN - January, 2013

Change the Weather History Date:

Friday, January 11, 2013

  Actual Average Record
Temperature  
Mean Temperature 20 °F -  
Max Temperature 24 °F 26 °F 46 °F (1981)
Min Temperature 15 °F 19 °F -10 °F (1975)
Degree Days  
Heating Degree Days 46    
Moisture  
Dew Point 16 °F    
Average Humidity 86    
Maximum Humidity 93    
Minimum Humidity 79    
Precipitation  
Precipitation 0.00 in - - ()
Sea Level Pressure  
Sea Level Pressure 30.24 in    
Wind  
Wind Speed 14 mph (WNW)    
Max Wind Speed 20 mph    
Max Gust Speed -    
Visibility 8 miles    
Events Snow    
Averages and records for this station are not official NWS values.
T = Trace of Precipitation, MM = Missing Value Source: NWS Daily Summary

Daily Weather History Graph

Daily Weather History Graph

Search for Another Location

Airport or City:

Trip Planner

Search our weather history database for the weather conditions in past years. The results will help you decide how hot, cold, wet, or windy it might be!

Date:

Astronomy

Jan. 11, 2013 Rise Set
Actual Time 8:48 AM AKST 3:32 PM AKST
Civil Twilight 7:56 AM AKST 4:24 PM AKST
Nautical Twilight 7:03 AM AKST 5:17 PM AKST
Astronomical Twilight 6:14 AM AKST 6:06 PM AKST
Moon 8:13 AM AKST (1/11) 4:17 PM AKST (1/11)
Length of Visible Light 8h 27m
Length of Day
6h 43m
New Moon, 0% of the Moon is Illuminated
Jan 11
New Moon
Jan 18
First Quarter
Jan 26
Full
Feb 3
Last Quarter
Feb 9
New

Hourly Weather History & Observations

Time (AKST) Temp. Windchill Dew Point Humidity Pressure Visibility Wind Dir Wind Speed Gust Speed Precip Events Conditions
12:54 AM 17.1 °F 3.0 °F 12.0 °F 81% 30.30 in 10.0 mi WNW 13.8 mph - N/A   Overcast
1:54 AM 18.0 °F 1.7 °F 12.9 °F 81% 30.29 in 10.0 mi WNW 19.6 mph - N/A   Overcast
2:14 AM 15.8 °F 0.3 °F 10.4 °F 79% 30.28 in 10.0 mi WNW 16.1 mph - N/A   Overcast
3:54 AM 15.1 °F -0.1 °F 12.0 °F 88% 30.27 in 10.0 mi WNW 15.0 mph - N/A   Overcast
4:54 AM 17.1 °F 3.0 °F 12.9 °F 84% 30.26 in 10.0 mi WNW 13.8 mph - N/A   Overcast
5:54 AM 16.0 °F 0.6 °F 12.9 °F 88% 30.24 in 7.0 mi WNW 16.1 mph - N/A   Overcast
6:54 AM 19.0 °F 5.6 °F 14.0 °F 81% 30.24 in 5.0 mi WNW 13.8 mph - 0.00 in Snow Light Snow
7:39 AM 17.6 °F 3.7 °F 14.0 °F 86% 30.23 in 2.5 mi WNW 13.8 mph - 0.00 in Snow Light Snow
7:49 AM 15.8 °F 0.9 °F 14.0 °F 93% 30.22 in 3.0 mi West 15.0 mph - 0.00 in Snow Light Snow
7:54 AM 17.1 °F 2.5 °F 12.9 °F 84% 30.23 in 3.0 mi West 15.0 mph - 0.00 in Snow Light Snow
8:20 AM 17.6 °F 3.2 °F 14.0 °F 86% 30.22 in 9.0 mi WNW 15.0 mph - 0.00 in   Overcast
8:54 AM 17.1 °F 3.0 °F 14.0 °F 88% 30.24 in 10.0 mi WNW 13.8 mph - 0.00 in   Overcast
9:54 AM 19.9 °F 6.7 °F 15.1 °F 81% 30.24 in 8.0 mi WNW 13.8 mph - 0.00 in   Overcast
11:54 AM 21.0 °F 8.6 °F 16.0 °F 81% 30.22 in 10.0 mi WNW 12.7 mph - 0.00 in   Overcast
12:54 PM 21.0 °F 8.1 °F 17.1 °F 85% 30.21 in 10.0 mi WNW 13.8 mph - 0.00 in   Overcast
1:17 PM 21.2 °F 8.3 °F 17.6 °F 86% 30.20 in 9.0 mi WNW 13.8 mph - 0.00 in   Overcast
1:54 PM 21.0 °F 8.1 °F 17.1 °F 85% 30.21 in 10.0 mi WNW 13.8 mph - 0.00 in   Overcast
2:54 PM 21.9 °F 9.8 °F 17.1 °F 82% 30.22 in 10.0 mi WNW 12.7 mph - N/A   Overcast
3:26 PM 21.2 °F 8.9 °F 17.6 °F 86% 30.21 in 5.0 mi WNW 12.7 mph - 0.00 in Snow Light Snow
3:54 PM 21.9 °F 8.2 °F 18.0 °F 85% 30.22 in 4.0 mi WNW 16.1 mph - 0.00 in Snow Light Snow
4:54 PM 21.0 °F 8.6 °F 18.0 °F 88% 30.22 in 7.0 mi WNW 12.7 mph - 0.00 in Snow Light Snow
5:54 PM 23.0 °F 12.4 °F 19.9 °F 88% 30.22 in 10.0 mi WNW 10.4 mph - 0.00 in   Overcast
6:11 PM 23.0 °F 11.7 °F 19.4 °F 86% 30.22 in 10.0 mi WNW 11.5 mph - N/A   Overcast
6:54 PM 21.0 °F 8.1 °F 19.0 °F 92% 30.24 in 8.0 mi WNW 13.8 mph - 0.00 in Snow Light Snow
7:30 PM 21.2 °F 8.9 °F 19.4 °F 93% 30.24 in 10.0 mi WNW 12.7 mph - 0.00 in   Overcast
7:54 PM 21.9 °F 10.4 °F 19.0 °F 89% 30.25 in 10.0 mi WNW 11.5 mph - 0.00 in   Overcast
8:03 PM 21.2 °F 10.1 °F 19.4 °F 93% 30.24 in 10.0 mi WNW 10.4 mph - N/A   Overcast
8:54 PM 21.9 °F 11.0 °F 19.0 °F 89% 30.25 in 10.0 mi WNW 10.4 mph - N/A   Overcast
9:54 PM 24.1 °F 13.1 °F 19.9 °F 84% 30.28 in 10.0 mi WNW 11.5 mph - N/A   Overcast
10:54 PM 21.9 °F 10.4 °F 19.9 °F 92% 30.29 in 10.0 mi West 11.5 mph - N/A   Overcast
11:54 PM 21.9 °F 9.8 °F 19.0 °F 89% 30.30 in 10.0 mi WNW 12.7 mph - N/A   Overcast